Weather History for Mojave, CA

Change the Weather History Date:

Wednesday, December 5, 2012

  Actual Average Record
Temperature  
Mean Temperature 58 °F -  
Max Temperature 71 °F 60 °F 73 °F (1977)
Min Temperature 44 °F 35 °F 26 °F (1971)
Degree Days  
Heating Degree Days 8    
Growing Degree Days 8 (Base 50)    
Moisture  
Dew Point 28 °F    
Average Humidity 33    
Maximum Humidity 59    
Minimum Humidity 14    
Precipitation  
Precipitation 0.00 in - - ()
Sea Level Pressure  
Sea Level Pressure 30.11 in    
Wind  
Wind Speed 10 mph (West)    
Max Wind Speed 28 mph    
Max Gust Speed 33 mph    
Visibility 10 miles    
Events      
Averages and records for this station are not official NWS values.
T = Trace of Precipitation, MM = Missing Value Source: NWS Daily Summary

Daily Weather History Graph

Daily Weather History Graph

Search for Another Location

Airport:

Trip Planner

Search our weather history database for the weather conditions in past years. The results will help you decide how hot, cold, wet, or windy it might be!

Date:

Astronomy

Dec. 05, 2012 Rise Set
Actual Time 6:46 AM PST 4:40 PM PST
Civil Twilight 6:18 AM PST 5:08 PM PST
Nautical Twilight 5:46 AM PST 5:39 PM PST
Astronomical Twilight 5:16 AM PST 6:10 PM PST
Moon 11:23 PM PST (12/5) 11:22 AM PST (12/5)
Length of Visible Light 10h 50m
Length of Day
9h 54m
Waning Gibbous, 58% of the Moon is Illuminated
Dec 5
Waning Gibbous
Dec 6
Last Quarter
Dec 13
New
Dec 19
First Quarter
Dec 28
Full

Hourly Weather History & Observations

Time (PST) Temp. Windchill Dew Point Humidity Pressure Visibility Wind Dir Wind Speed Gust Speed Precip Events Conditions
12:15 AM 46.4 °F - 28.4 °F 50% 30.21 in 10.0 mi Calm Calm - N/A   Clear
12:35 AM 44.6 °F - 28.4 °F 53% 30.21 in 10.0 mi Calm Calm - N/A   Clear
12:55 AM 44.6 °F - 26.6 °F 49% 30.21 in 10.0 mi Calm Calm - N/A   Clear
1:15 AM 44.6 °F - 24.8 °F 46% 30.20 in 10.0 mi Calm Calm - N/A   Clear
1:35 AM 44.6 °F - 24.8 °F 46% 30.19 in 10.0 mi Calm Calm - N/A   Clear
1:55 AM 44.6 °F - 26.6 °F 49% 30.18 in 10.0 mi Calm Calm - N/A   Clear
2:15 AM 48.2 °F - 26.6 °F 43% 30.19 in 10.0 mi Calm Calm - N/A   Clear
2:35 AM 48.2 °F - 26.6 °F 43% 30.18 in 10.0 mi Calm Calm - N/A   Clear
2:55 AM 44.6 °F 43.1 °F 26.6 °F 49% 30.17 in 10.0 mi NNE 3.5 mph - N/A   Clear
3:15 AM 44.6 °F - 28.4 °F 53% 30.17 in 10.0 mi Calm Calm - N/A   Clear
3:35 AM 48.2 °F - 32.0 °F 54% 30.17 in 10.0 mi Calm Calm - N/A   Clear
3:55 AM 48.2 °F - 26.6 °F 43% 30.15 in 7.0 mi Calm Calm - N/A   Clear
4:15 AM 50.0 °F - 28.4 °F 43% 30.15 in 10.0 mi Calm Calm - N/A   Clear
4:35 AM 50.0 °F - 26.6 °F 40% 30.15 in 10.0 mi Calm Calm - N/A   Clear
4:55 AM 48.2 °F - 28.4 °F 46% 30.15 in 10.0 mi Calm Calm - N/A   Clear
6:55 AM 60.8 °F - 12.2 °F 15% 30.15 in 10.0 mi West 15.0 mph - N/A   Clear
7:15 AM 60.8 °F - 12.2 °F 15% 30.15 in 10.0 mi West 19.6 mph - N/A   Clear
7:35 AM 62.6 °F - 12.2 °F 14% 30.15 in 10.0 mi West 21.9 mph - N/A   Clear
7:55 AM 62.6 °F - 14.0 °F 15% 30.15 in 10.0 mi West 20.7 mph - N/A   Clear
8:15 AM 62.6 °F - 15.8 °F 16% 30.15 in 10.0 mi West 20.7 mph - N/A   Clear
8:35 AM 64.4 °F - 15.8 °F 15% 30.16 in 10.0 mi West 19.6 mph 24.2 mph N/A   Clear
8:55 AM 64.4 °F - 17.6 °F 16% 30.16 in 10.0 mi West 20.7 mph - N/A   Clear
9:15 AM 64.4 °F - 17.6 °F 16% 30.16 in 10.0 mi West 19.6 mph - N/A   Clear
9:35 AM 66.2 °F - 23.0 °F 19% 30.15 in 10.0 mi West 20.7 mph - N/A   Clear
9:55 AM 66.2 °F - 26.6 °F 23% 30.15 in 10.0 mi WSW 16.1 mph - N/A   Clear
10:15 AM 68.0 °F - 30.2 °F 24% 30.14 in 10.0 mi WSW 17.3 mph 23.0 mph N/A   Clear
10:35 AM 68.0 °F - 32.0 °F 26% 30.14 in 10.0 mi West 20.7 mph - N/A   Clear
11:15 AM 69.8 °F - 35.6 °F 28% 30.12 in 10.0 mi West 23.0 mph 26.5 mph N/A   Clear
11:35 AM 71.6 °F - 32.0 °F 23% 30.11 in 10.0 mi West 24.2 mph 29.9 mph N/A   Clear
11:55 AM 71.6 °F - 32.0 °F 23% 30.10 in 10.0 mi West 21.9 mph - N/A   Clear
12:15 PM 71.6 °F - 32.0 °F 23% 30.10 in 10.0 mi West 21.9 mph 27.6 mph N/A   Clear
12:30 PM 69.8 °F - 32.0 °F 25% 30.10 in 10.0 mi West 23.0 mph 31.1 mph N/A   Clear
12:55 PM 71.6 °F - 32.0 °F 23% 30.08 in 10.0 mi West 23.0 mph 29.9 mph N/A   Clear
1:15 PM 69.8 °F - 33.8 °F 27% 30.08 in 10.0 mi West 27.6 mph 32.2 mph N/A   Clear
1:35 PM 69.8 °F - 35.6 °F 28% 30.07 in 10.0 mi West 25.3 mph - N/A   Clear
1:55 PM 69.8 °F - 35.6 °F 28% 30.06 in 10.0 mi West 25.3 mph 33.4 mph N/A   Clear
2:15 PM 69.8 °F - 37.4 °F 31% 30.06 in 10.0 mi West 21.9 mph - N/A   Clear
2:35 PM 68.0 °F - 37.4 °F 33% 30.05 in 10.0 mi West 19.6 mph 26.5 mph N/A   Clear
2:55 PM 68.0 °F - 37.4 °F 33% 30.05 in 10.0 mi West 25.3 mph 29.9 mph N/A   Clear
3:15 PM 68.0 °F - 39.2 °F 35% 30.05 in 10.0 mi West 21.9 mph 32.2 mph N/A   Clear
3:35 PM 66.2 °F - 35.6 °F 32% 30.05 in 10.0 mi WNW 20.7 mph 25.3 mph N/A   Clear
3:55 PM 64.4 °F - 37.4 °F 37% 30.06 in 10.0 mi WNW 17.3 mph 24.2 mph N/A   Clear
4:15 PM 64.4 °F - 32.0 °F 30% 30.07 in 10.0 mi West 11.5 mph 17.3 mph N/A   Clear
4:35 PM 62.6 °F - 28.4 °F 27% 30.07 in 10.0 mi West 12.7 mph - N/A   Clear
4:55 PM 60.8 °F - 24.8 °F 25% 30.07 in 10.0 mi West 18.4 mph 21.9 mph N/A   Clear
5:15 PM 59.0 °F - 24.8 °F 27% 30.06 in 10.0 mi West 20.7 mph 26.5 mph N/A   Clear
5:35 PM 59.0 °F - 23.0 °F 25% 30.08 in 10.0 mi West 15.0 mph - N/A   Clear
5:55 PM 59.0 °F - 19.4 °F 22% 30.09 in 10.0 mi SSE 3.5 mph - N/A   Clear
6:15 PM 59.0 °F - 23.0 °F 25% 30.09 in 10.0 mi SSW 6.9 mph - N/A   Clear
6:35 PM 57.2 °F - 19.4 °F 23% 30.08 in 10.0 mi SW 8.1 mph - N/A   Clear
6:55 PM 57.2 °F - 19.4 °F 23% 30.08 in 10.0 mi South 8.1 mph - N/A   Clear
7:15 PM 57.2 °F - 21.2 °F 25% 30.08 in 10.0 mi SW 5.8 mph - N/A   Clear
7:55 PM 59.0 °F - 23.0 °F 25% 30.08 in 10.0 mi SSE 10.4 mph - N/A   Clear
8:15 PM 57.2 °F - 23.0 °F 27% 30.07 in 10.0 mi SSW 4.6 mph - N/A   Clear
8:35 PM 57.2 °F - 24.8 °F 29% 30.07 in 10.0 mi SW 15.0 mph - N/A   Clear
8:55 PM 55.4 °F - 28.4 °F 36% 30.07 in 10.0 mi West 17.3 mph - N/A   Clear
9:15 PM 57.2 °F - 32.0 °F 38% 30.06 in 10.0 mi WSW 16.1 mph - N/A   Clear
9:35 PM 57.2 °F - 33.8 °F 41% 30.06 in 10.0 mi WSW 15.0 mph - N/A   Clear
9:55 PM 57.2 °F - 35.6 °F 44% 30.06 in 10.0 mi WSW 13.8 mph - N/A   Clear
10:15 PM 57.2 °F - 39.2 °F 51% 30.06 in 10.0 mi West 20.7 mph 26.5 mph N/A   Clear
10:35 PM 57.2 °F - 39.2 °F 51% 30.06 in 10.0 mi WSW 15.0 mph 20.7 mph N/A   Clear
10:55 PM 57.2 °F - 39.2 °F 51% 30.06 in 10.0 mi West 17.3 mph - N/A   Clear
11:15 PM 57.2 °F - 41.0 °F 55% 30.05 in 10.0 mi West 13.8 mph - N/A   Clear
11:35 PM 57.2 °F - 42.8 °F 59% 30.05 in 10.0 mi WNW 15.0 mph 24.2 mph N/A   Clear
11:55 PM 57.2 °F - 42.8 °F 59% 30.04 in 10.0 mi West 18.4 mph 26.5 mph N/A   Clear